Weather reports worldwide

Advertisment
Cardinham, United Kingdom (3823): temperature & dewpoint: 01.07.2020 19:00:00 - 07.07.2020 19:00:00 (BST)Cardinham, United Kingdom (3823): temperature -20cm & temperature -100cm: 01.07.2020 19:00:00 - 07.07.2020 19:00:00 (BST)Cardinham, United Kingdom (3823): wind speed & gusts: 01.07.2020 19:00:00 - 07.07.2020 19:00:00 (BST)Cardinham, United Kingdom (3823): wind direction: 01.07.2020 19:00:00 - 07.07.2020 19:00:00 (BST)Cardinham, United Kingdom (3823): reduced air pressure: 01.07.2020 19:00:00 - 07.07.2020 19:00:00 (BST)Cardinham, United Kingdom (3823): visibility: 01.07.2020 19:00:00 - 07.07.2020 19:00:00 (BST)Cardinham, United Kingdom (3823): precipitation: 01.07.2020 19:00:00 - 07.07.2020 19:00:00 (BST)
Date & Time tt [°C] td [°C] tt -20cm [°C] tt -100cm [°C] ff [km/h] ff [kn] fx [km/h] fx [kn] dd ppp [hPa] vv [km] rr [mm]
07.07.2020 19:00:00 13,5 11,8 - - 18 10 - - WSW 1019,9 16 0,0
07.07.2020 18:00:00 13,7 11,4 - - 22 12 46 25 WSW 1020,4 15 0,0
07.07.2020 17:00:00 14,5 10,8 - - 24 13 - - W 1020,8 23 0,0
07.07.2020 16:00:00 15,2 10,7 - - 22 12 - - W 1021,0 20 0,0
07.07.2020 15:00:00 16,1 10,3 - - 26 14 - - WSW 1021,0 35 0,0
07.07.2020 14:00:00 15,6 10,9 - - 24 13 - - WSW 1021,3 35 0,0
07.07.2020 13:00:00 15,4 11,3 - - 22 12 - - WSW 1021,8 17 0,0
07.07.2020 12:00:00 15,5 10,4 - - 22 12 - - W 1022,1 29 0,0
07.07.2020 11:00:00 14,4 10,4 - - 16 9 - - W 1022,6 29 0,0
07.07.2020 10:00:00 13,7 10,6 16,0 15,0 16 9 - - W 1022,5 23 0,0
07.07.2020 09:00:00 12,6 11,8 - - 13 7 - - W 1022,8 15 0,0
07.07.2020 08:00:00 11,7 11,5 - - 13 7 - - WSW 1022,8 17 0,0
07.07.2020 07:00:00 10,5 10,5 - - 11 6 - - W 1023,2 10 0,0
07.07.2020 06:00:00 9,8 9,8 - - 13 7 - - W 1023,4 8 0,2
07.07.2020 05:00:00 9,9 9,8 - - 11 6 - - W 1023,7 9 0,0
07.07.2020 04:00:00 8,4 8,3 - - 8 4 - - NW 1024,1 2,2 0,0
07.07.2020 03:00:00 8,7 8,6 - - 8 4 - - NW 1024,7 2,6 0,0
07.07.2020 02:00:00 8,5 8,3 - - 5 3 - - NNW 1025,3 5 0,0
07.07.2020 01:00:00 8,7 8,4 - - 8 4 - - NW 1025,7 6 0,0
07.07.2020 00:00:00 8,8 8,3 - - 5 3 - - NW 1025,8 8 0,0
06.07.2020 23:00:00 9,7 8,8 - - 8 4 - - NW 1026,2 10 0,0
06.07.2020 22:00:00 11,1 10,2 - - 11 6 - - WNW 1026,0 14 0,0
06.07.2020 21:00:00 12,1 9,9 - - 15 8 - - WNW 1025,9 19 0,0
06.07.2020 20:00:00 12,9 10,1 - - 15 8 - - NW 1026,0 23 0,0
06.07.2020 19:00:00 13,9 9,4 - - 18 10 - - NW 1025,6 27 0,0
06.07.2020 18:00:00 14,7 9,9 - - 18 10 - - NW 1025,5 24 0,0
06.07.2020 17:00:00 14,4 9,9 - - 21 11 - - NW 1025,6 26 0,0
06.07.2020 16:00:00 16,0 10,1 - - 21 11 - - NNW 1025,2 24 0,0
06.07.2020 15:00:00 16,9 12,2 - - 21 11 - - NW 1024,9 16 0,0
06.07.2020 14:00:00 15,5 10,7 - - 24 13 - - NW 1024,9 20 0,0
06.07.2020 13:00:00 16,4 11,3 - - 24 13 - - NW 1024,3 24 0,0
06.07.2020 12:00:00 15,8 11,8 - - 29 16 - - NW 1024,0 11 0,0
06.07.2020 11:00:00 13,4 9,2 - - 28 15 46 25 NW 1023,8 24 0,0
06.07.2020 10:00:00 13,7 10,0 15,9 15,0 31 17 50 27 NW 1023,0 17 0,0
06.07.2020 09:00:00 13,1 10,3 - - 29 16 48 26 NW 1022,6 16 0,0
06.07.2020 08:00:00 12,3 9,9 - - 26 14 - - NW 1022,0 19 0,2
06.07.2020 07:00:00 11,4 9,0 - - 24 13 - - NW 1021,4 16 0,0
06.07.2020 06:00:00 11,3 9,6 - - 22 12 - - NW 1020,6 12 0,0
06.07.2020 05:00:00 11,4 9,5 - - 29 16 46 25 WNW 1020,3 13 0,0
06.07.2020 04:00:00 11,6 10,3 - - 26 14 - - WNW 1019,9 10 0,0
06.07.2020 03:00:00 11,7 10,2 - - 26 14 48 26 WNW 1020,0 10 0,0
06.07.2020 02:00:00 11,9 10,4 - - 28 15 48 26 WNW 1019,9 9 0,0
06.07.2020 01:00:00 11,8 10,0 - - 29 16 48 26 WNW 1019,8 9 0,0
06.07.2020 00:00:00 11,8 9,7 - - 26 14 46 25 WNW 1019,5 11 0,0
05.07.2020 23:00:00 11,9 9,7 - - 24 13 50 27 WNW 1019,2 10 0,0
05.07.2020 22:00:00 11,9 8,9 - - 28 15 50 27 WNW 1018,6 11 0,0
05.07.2020 21:00:00 12,4 9,2 - - 28 15 54 29 W 1018,3 11 0,0
05.07.2020 20:00:00 12,7 8,7 - - 29 16 55 30 W 1017,8 12 0,0
05.07.2020 19:00:00 13,3 9,7 - - 31 17 54 29 W 1017,5 12 0,0
05.07.2020 18:00:00 13,9 9,5 - - 31 17 59 32 W 1017,3 20 0,0
05.07.2020 17:00:00 14,7 10,7 - - 31 17 59 32 W 1017,1 23 0,0
05.07.2020 16:00:00 14,7 9,3 - - 34 18 61 33 W 1017,1 16 0,0
05.07.2020 15:00:00 15,4 9,4 - - 39 21 61 33 W 1016,5 27 0,0
05.07.2020 14:00:00 14,2 8,7 - - 35 19 52 28 W 1016,2 21 0,0
05.07.2020 13:00:00 15,5 9,1 - - 29 16 52 28 W 1015,9 15 0,0
05.07.2020 12:00:00 14,7 9,6 - - 28 15 55 30 W 1015,7 15 0,0
05.07.2020 11:00:00 13,9 8,7 - - 29 16 50 27 WNW 1015,3 25 0,0
05.07.2020 10:00:00 13,2 10,2 15,9 15,0 26 14 - - WNW 1015,0 17 0,0
05.07.2020 09:00:00 13,4 10,7 - - 24 13 52 28 WNW 1014,5 20 0,0
05.07.2020 08:00:00 12,6 11,8 - - 26 14 - - WNW 1013,6 14 0,0
05.07.2020 07:00:00 12,2 12,1 - - 24 13 - - WNW 1013,1 14 0,2
05.07.2020 06:00:00 13,1 13,1 - - 28 15 59 32 W 1012,6 6 0,2
05.07.2020 05:00:00 14,3 14,3 - - 31 17 67 36 W 1012,1 2,7 0,6
05.07.2020 04:00:00 14,7 14,7 - - 34 18 57 31 W 1012,1 2,2 0,2
05.07.2020 03:00:00 14,9 14,9 - - 34 18 55 30 W 1012,1 3,7 0,4
05.07.2020 02:00:00 15,1 15,1 - - 37 20 52 28 WSW 1012,3 2,8 0,2
05.07.2020 01:00:00 14,6 14,6 - - 34 18 55 30 WSW 1012,8 2,0 0,2
05.07.2020 00:00:00 15,0 15,0 - - 29 16 52 28 WSW 1013,0 4,9 0,0
04.07.2020 23:00:00 14,7 14,7 - - 24 13 46 25 WSW 1012,8 0,3 0,0
04.07.2020 22:00:00 14,2 14,2 - - 28 15 48 26 WSW 1013,0 0,4 0,0
04.07.2020 21:00:00 14,1 14,1 - - 29 16 48 26 WSW 1013,0 0,7 0,2
04.07.2020 20:00:00 14,3 14,3 - - 28 15 50 27 WSW 1012,9 2,9 0,0
04.07.2020 19:00:00 14,6 14,5 - - 28 15 46 25 W 1013,1 2,9 0,0
04.07.2020 18:00:00 14,7 14,7 - - 29 16 48 26 W 1013,1 4,2 0,0
04.07.2020 17:00:00 15,4 15,3 - - 26 14 - - W 1013,0 4,0 0,0
04.07.2020 16:00:00 15,7 15,7 - - 26 14 50 27 W 1012,9 3,9 0,0
04.07.2020 15:00:00 15,4 15,4 - - 26 14 46 25 W 1012,7 3,9 0,4
04.07.2020 14:00:00 15,4 15,3 - - 34 18 50 27 WSW 1012,6 2,6 0,4
04.07.2020 13:00:00 15,5 15,5 - - 24 13 - - WSW 1012,5 3,5 0,6
04.07.2020 12:00:00 15,4 15,3 - - 26 14 - - WSW 1012,3 2,7 0,8
04.07.2020 11:00:00 15,2 15,2 - - 21 11 - - WSW 1012,4 3,1 0,4
04.07.2020 10:00:00 15,1 15,1 15,9 15,0 28 15 - - WSW 1012,4 27 0,0
04.07.2020 09:00:00 14,8 14,8 - - 28 15 - - WSW 1012,2 7 0,0
04.07.2020 08:00:00 14,6 14,6 - - 24 13 - - WSW 1012,1 7 0,0
04.07.2020 07:00:00 14,6 14,6 - - 22 12 - - W 1012,1 1,8 0,2
04.07.2020 06:00:00 14,4 14,4 - - 26 14 - - W 1012,1 15 0,2
04.07.2020 05:00:00 14,7 14,7 - - 26 14 - - W 1012,0 2,8 0,4
04.07.2020 04:00:00 14,8 14,8 - - 28 15 - - WSW 1011,9 2,1 0,8
04.07.2020 03:00:00 14,8 14,8 - - 22 12 - - WSW 1012,3 2,9 0,8
04.07.2020 02:00:00 14,7 14,7 - - 24 13 - - SW 1012,5 1,9 0,4
04.07.2020 01:00:00 14,7 14,6 - - 22 12 55 30 SW 1012,9 2,3 0,2
04.07.2020 00:00:00 14,6 14,6 - - 26 14 - - SW 1013,5 5 1,8
03.07.2020 23:00:00 14,5 14,4 - - 28 15 - - SW 1013,9 3,2 1,0
03.07.2020 22:00:00 14,3 14,2 - - 26 14 - - SSW 1014,1 4,4 0,2
03.07.2020 21:00:00 14,2 14,1 - - 28 15 - - SW 1014,3 4,0 0,2
03.07.2020 20:00:00 14,0 13,8 - - 29 16 46 25 SW 1014,5 4,1 0,6
03.07.2020 19:00:00 13,7 13,6 - - 26 14 - - SSW 1015,1 2,7 1,4
03.07.2020 18:00:00 13,5 13,3 - - 22 12 - - SSW 1015,7 4,1 2,4
03.07.2020 17:00:00 13,4 13,0 - - 22 12 - - SSW 1016,0 4,1 2,0
03.07.2020 16:00:00 13,4 12,4 - - 26 14 - - SSW 1016,5 5 1,0
03.07.2020 15:00:00 14,5 11,8 - - 31 17 50 27 SW 1017,0 24 0,0
03.07.2020 14:00:00 14,6 11,4 - - 29 16 52 28 SW 1016,9 24 0,0
03.07.2020 13:00:00 15,4 11,4 - - 29 16 46 25 SW 1017,4 26 0,0
03.07.2020 12:00:00 15,2 11,6 - - 28 15 - - SW 1017,6 26 0,0
03.07.2020 11:00:00 14,7 11,0 - - 24 13 - - SW 1017,6 30 0,0
03.07.2020 10:00:00 14,8 11,0 16,0 15,0 26 14 - - WSW 1017,8 35 0,0
03.07.2020 09:00:00 13,3 10,7 - - 26 14 - - WSW 1018,0 35 0,0
03.07.2020 08:00:00 12,8 11,2 - - 18 10 - - WSW 1017,9 30 0,0
03.07.2020 07:00:00 11,9 11,2 - - 16 9 - - WSW 1018,2 17 0,0
03.07.2020 06:00:00 11,3 10,8 - - 18 10 - - WSW 1018,2 22 0,0
03.07.2020 05:00:00 11,4 11,3 - - 15 8 - - WSW 1018,2 10 0,0
03.07.2020 04:00:00 11,1 10,9 - - 15 8 - - W 1018,5 10 0,0
03.07.2020 03:00:00 10,8 10,7 - - 13 7 - - W 1018,5 8 0,0
03.07.2020 02:00:00 11,0 10,9 - - 11 6 - - WSW 1018,4 7 0,0
03.07.2020 01:00:00 10,6 10,3 - - 11 6 - - W 1018,6 8 0,0
03.07.2020 00:00:00 10,8 10,3 - - 9 5 - - WSW 1018,7 12 0,0
02.07.2020 23:00:00 11,5 10,9 - - 11 6 - - W 1018,6 14 0,0
02.07.2020 22:00:00 11,8 11,0 - - 11 6 - - W 1018,5 16 0,0
02.07.2020 21:00:00 12,2 10,7 - - 15 8 - - WNW 1018,1 20 0,0
02.07.2020 20:00:00 13,6 10,9 - - 15 8 - - W 1017,7 26 0,0
02.07.2020 19:00:00 13,8 10,6 - - 18 10 - - WNW 1017,2 29 0,0
02.07.2020 18:00:00 14,3 12,1 - - 15 8 - - WNW 1016,4 20 0,0
02.07.2020 17:00:00 14,4 11,8 - - 21 11 - - WNW 1016,0 35 0,0
02.07.2020 16:00:00 14,8 12,0 - - 16 9 - - NW 1015,8 27 0,0
02.07.2020 15:00:00 17,4 14,0 - - 21 11 - - WNW 1015,0 28 0,0
02.07.2020 14:00:00 14,0 12,1 - - 21 11 - - NW 1015,1 26 0,0
02.07.2020 13:00:00 13,4 11,6 - - 18 10 - - NW 1014,4 8 0,0
02.07.2020 12:00:00 13,7 12,8 - - 13 7 - - W 1013,8 30 0,4
02.07.2020 11:00:00 14,6 11,1 - - 18 10 - - W 1013,1 30 0,0
02.07.2020 10:00:00 13,8 11,7 16,2 15,0 18 10 - - W 1012,9 45 0,0
02.07.2020 09:00:00 13,3 11,3 - - 16 9 - - WNW 1012,4 35 0,0
02.07.2020 08:00:00 12,8 11,9 - - 15 8 - - W 1011,8 20 0,0
02.07.2020 07:00:00 11,9 11,4 - - 13 7 - - W 1011,4 17 0,0
02.07.2020 06:00:00 11,5 11,0 - - 16 9 - - W 1010,9 15 0,0
02.07.2020 05:00:00 11,7 11,2 - - 16 9 - - W 1010,7 15 0,0
02.07.2020 04:00:00 11,3 10,8 - - 15 8 - - W 1010,7 12 0,0
02.07.2020 03:00:00 11,8 11,2 - - 15 8 - - W 1010,6 13 0,0
02.07.2020 02:00:00 12,1 11,4 - - 18 10 - - W 1010,4 15 0,0
02.07.2020 01:00:00 12,0 11,4 - - 21 11 - - W 1010,2 17 0,0
02.07.2020 00:00:00 12,0 11,4 - - 21 11 - - W 1010,3 20 0,0
01.07.2020 23:00:00 12,3 11,7 - - 21 11 - - W 1010,0 13 0,4
01.07.2020 22:00:00 12,6 11,3 - - 13 7 - - W 1009,7 10 0,0
01.07.2020 21:00:00 12,8 11,2 - - 16 9 - - W 1009,3 30 0,0
01.07.2020 20:00:00 13,5 10,8 - - 18 10 - - W 1009,0 35 0,0
01.07.2020 19:00:00 14,1 11,1 - - 18 10 - - W 1008,8 24 0,0

tt = temperature
td = dewpoint
tt -20cm = temperature -20cm
tt -100cm = temperature -100cm
ff = wind speed
fx = gusts
dd = wind direction
ppp = reduced air pressure
vv = visibility
rr = precipitation

Next stations